Wind_Speed
11 11 8 6 4 5 1 8 11 10 8 16 13 9 12 9 4 8 33 36 38 21 17 21 23 22 23 22 21 19 16 13 12 11 10 11 11 10 9 10 11 10 10 8 8 9 10 10 8
12 11 7 7 4 2 6 14 10 7 15 15 12 14 10 8 11 25 35 40 33 19 19 20 23 23 22 22 20 17 14 13 12 11 11 10 10 11 10 10 11 9 10 9 9 9 10 9 8
13 11 5 4 4 6 4 12 12 13 12 12 15 12 6 8 22 32 32 45 27 20 20 24 24 23 23 21 19 16 14 13 11 12 10 9 10 11 11 11 10 9 10 9 9 8 9 9 9
11 8 10 2 15 10 8 11 11 10 9 9 16 13 13 11 20 29 38 35 24 23 21 27 24 23 22 20 17 15 14 12 11 10 9 9 11 12 9 11 11 11 11 10 10 10 9 7 6
7 12 11 9 7 9 10 11 14 13 9 11 16 13 16 13 21 35 37 27 25 21 22 25 24 22 21 19 16 15 14 12 10 9 8 9 10 10 8 9 11 12 12 12 12 11 9 8 7
7 8 4 6 8 10 11 7 10 12 13 11 16 21 11 19 36 32 31 26 24 24 24 22 23 22 20 18 16 15 13 11 9 8 8 9 9 8 7 8 10 11 12 13 13 12 9 9 8
17 11 16 2 6 13 11 6 8 10 10 11 19 12 18 28 33 31 28 25 25 25 24 22 21 21 19 17 15 14 12 10 7 9 9 9 9 8 8 9 9 9 10 11 10 10 10 10 11
18 13 14 4 9 15 11 10 9 12 15 16 17 10 24 34 32 29 26 25 24 25 23 21 20 18 16 16 14 13 12 9 8 9 10 10 11 11 10 9 7 8 9 8 8 8 8 10 13
13 12 5 15 19 21 11 13 10 12 17 10 4 22 30 33 31 28 27 24 21 25 23 22 20 18 15 13 14 13 11 9 8 8 10 11 5 5 7 5 5 6 5 5 6 8 7 5 9
16 1 9 4 19 7 11 15 11 13 13 14 16 27 30 32 32 29 29 27 25 26 25 23 21 18 16 13 12 9 8 6 6 5 4 2 6 4 4 4 5 5 6 4 5 6 5 5 10
19 12 25 7 8 4 17 18 8 14 12 16 22 30 34 34 31 29 27 27 26 25 25 24 22 19 16 15 10 9 8 8 6 4 7 5 4 4 2 2 4 6 6 3 4 5 11 4 8
17 12 19 6 7 6 11 20 13 4 17 18 21 30 35 34 33 30 29 28 26 26 25 24 22 20 18 13 12 11 10 9 7 6 7 3 1 2 1 8 3 1 6 2 3 0 2 4 11
19 18 11 11 6 5 4 12 13 12 9 19 22 28 33 31 30 29 28 27 27 26 25 24 23 20 19 15 13 12 11 10 8 7 7 5 3 3 6 3 5 1 1 3 5 5 1 2 5
15 19 14 16 13 12 11 11 10 18 15 20 23 27 30 30 29 28 28 28 27 26 26 24 22 21 20 18 14 14 13 10 10 8 7 9 6 4 1 2 1 5 3 1 1 1 5 3 3
24 13 18 12 17 10 13 14 17 23 19 23 24 26 28 30 29 29 29 28 27 27 26 25 24 22 21 19 17 15 12 12 10 9 10 8 8 6 6 5 1 3 3 2 1 3 1 3 5
18 20 16 20 19 17 15 18 20 21 23 23 25 26 28 30 30 29 29 28 28 26 26 25 24 22 21 19 17 15 14 13 11 10 8 8 8 10 4 3 3 1 2 2 2 2 2 5 1
18 18 23 21 22 15 17 7 13 25 24 24 26 27 28 29 30 30 30 30 29 28 27 26 24 23 22 20 17 16 16 15 13 11 10 11 10 8 5 4 7 1 1 1 3 2 2 2 4
23 24 22 22 19 19 17 18 27 23 24 25 26 27 28 30 33 31 30 30 29 28 27 26 25 24 24 20 20 17 17 15 14 13 12 14 12 9 7 5 5 2 2 1 1 1 2 1 2
22 22 25 22 16 20 19 18 20 23 22 20 26 27 29 30 30 31 31 30 29 29 29 28 28 27 25 23 20 20 19 17 16 15 16 15 14 11 12 9 4 4 2 4 2 2 4 3 1
27 24 22 22 15 13 19 20 18 16 21 21 23 28 29 29 30 32 33 33 32 31 31 31 31 30 31 24 23 20 19 17 16 15 17 17 13 13 12 8 9 6 3 2 2 4 4 1 3
27 27 21 18 20 19 15 19 18 20 17 23 20 28 28 32 33 34 35 36 34 34 34 34 34 33 33 26 23 22 20 20 18 17 17 16 15 13 12 10 11 8 7 8 3 2 4 3 3
27 26 23 19 19 17 22 16 20 18 20 18 24 28 31 32 34 35 36 37 37 37 35 34 36 36 34 34 24 26 24 21 20 18 17 16 17 15 14 13 13 15 8 7 4 6 5 4 3
24 21 23 22 18 17 19 19 18 25 23 23 21 26 31 33 36 37 37 38 38 36 35 35 37 36 34 34 33 27 28 22 17 18 18 21 18 17 17 16 14 13 11 10 10 8 7 5 5
22 20 21 22 18 19 25 20 18 16 25 27 25 28 27 33 35 36 36 35 36 36 35 34 36 37 36 35 35 34 29 27 22 20 19 18 18 18 20 19 19 16 13 13 9 12 10 10 8
20 20 13 16 18 17 25 23 19 18 19 19 19 29 28 30 34 36 37 37 37 38 37 36 37 39 37 37 35 38 37 31 28 25 21 19 18 17 21 19 23 19 19 17 16 16 12 11 10
27 25 16 22 19 18 24 27 24 25 13 18 28 27 30 30 34 36 37 39 39 41 43 42 41 42 41 41 40 37 38 32 31 29 22 21 19 17 17 20 18 22 20 19 19 16 13 13 13
23 27 26 23 23 15 20 24 26 23 27 20 17 28 31 33 34 36 38 39 39 41 44 46 43 44 44 44 43 42 40 39 34 32 31 25 22 19 19 20 19 20 22 21 20 17 19 17 17
28 24 23 18 22 20 16 16 17 21 18 25 25 20 29 32 33 36 38 39 40 40 46 48 49 47 47 46 46 45 44 43 41 36 35 29 29 26 19 24 21 21 23 24 23 20 20 21 20
25 22 27 21 18 15 12 9 18 19 22 22 21 35 29 30 34 36 36 39 41 41 40 45 48 51 47 47 47 47 47 46 43 44 42 37 33 31 29 24 25 25 25 26 26 24 21 25 24
27 29 28 17 24 18 12 2 11 10 8 17 23 27 34 31 32 32 35 34 36 39 39 41 43 45 50 47 47 49 48 47 47 46 45 43 40 38 37 32 34 30 28 29 29 29 25 28 27
Wind_Direction
160 158 171 201 254 239 118 90 97 98 78 100 109 105 103 52 47 126 148 157 152 143 147 141 142 142 141 143 139 137 137 126 117 110 103 92 91 93 89 79 73 79 81 90 100 93 97 91 60
162 170 197 264 248 222 106 76 68 104 101 108 110 107 80 83 99 139 156 161 153 150 150 150 146 145 145 143 142 138 133 125 119 112 99 92 89 93 80 82 74 70 78 88 98 95 91 85 71
189 194 251 242 261 107 82 141 124 96 118 123 104 102 58 92 125 139 155 156 148 154 156 160 149 148 147 143 142 139 133 126 120 110 106 97 92 94 90 79 76 79 75 80 88 89 85 83 80
185 233 244 190 281 88 103 102 99 115 116 104 117 85 81 134 139 144 154 151 157 161 157 158 154 152 148 144 144 141 134 126 119 115 107 100 101 97 81 73 76 81 84 86 87 95 96 90 73
229 257 250 221 162 63 77 89 117 141 131 132 108 100 107 121 139 146 151 154 154 153 157 158 157 155 152 148 147 141 135 126 117 118 117 108 104 108 93 81 83 86 88 89 92 93 92 81 68
252 238 90 251 84 97 84 121 112 90 109 105 98 118 118 135 144 147 152 152 155 153 157 159 159 159 155 151 150 143 137 125 120 128 122 108 101 99 94 86 85 90 93 91 92 89 83 81 67
254 305 285 297 110 89 92 141 105 105 122 125 132 124 135 148 153 151 152 154 154 154 159 157 157 160 158 156 151 148 138 128 132 129 116 106 93 92 94 90 95 99 101 96 91 87 78 73 62
261 269 297 311 89 103 119 94 92 130 83 127 133 137 152 154 157 153 155 159 161 158 163 160 160 157 153 156 154 152 139 142 139 124 110 101 90 80 62 76 98 106 106 96 82 73 73 71 58
255 271 127 256 40 116 137 103 87 90 128 130 85 137 149 154 158 156 159 163 168 163 166 165 164 163 158 161 160 153 147 152 145 133 116 101 143 95 87 121 100 102 106 96 82 63 75 73 73
236 331 274 291 167 95 127 121 115 132 138 132 116 130 149 155 161 163 163 165 168 169 170 170 170 169 166 164 177 156 158 156 135 150 129 11 120 109 98 67 63 66 86 85 57 58 76 52 38
234 245 230 112 31 209 140 122 143 117 157 150 136 148 155 159 166 166 169 170 172 172 173 176 174 175 171 170 173 169 175 178 179 197 178 92 193 122 59 85 64 68 42 109 52 360 61 23 9
238 258 260 99 122 264 152 134 139 195 134 154 150 159 162 167 170 173 174 175 177 177 179 179 179 179 177 181 177 180 181 180 186 196 186 190 177 138 184 49 146 127 113 139 65 347 10 189 113
226 260 219 247 231 234 260 140 145 146 141 149 155 164 171 174 175 177 178 179 180 182 184 184 185 186 185 184 186 186 187 183 182 200 206 186 192 227 250 126 22 25 149 52 281 71 71 144 94
218 231 252 234 210 186 224 170 200 153 156 152 162 172 177 181 180 180 183 181 184 186 188 190 192 194 189 190 189 190 190 197 191 203 218 214 181 240 188 264 43 316 22 46 14 130 86 211 79
229 251 228 225 235 216 219 189 188 157 169 163 168 175 181 186 185 186 186 186 188 188 190 194 195 197 195 196 197 192 200 192 206 202 215 210 214 245 211 175 65 224 304 299 179 95 256 286 61
220 229 220 213 217 213 205 209 176 162 173 174 174 178 183 188 190 190 190 190 191 192 193 194 197 199 200 200 203 200 199 205 207 209 219 229 204 190 231 249 308 261 16 295 257 228 326 85 140
214 221 223 221 204 204 207 171 305 171 180 179 182 182 184 187 193 194 194 193 193 193 194 196 197 199 202 201 202 203 207 205 211 214 212 237 221 221 213 257 250 295 37 43 253 309 262 111 219
214 216 217 222 193 207 198 241 182 170 180 186 185 186 188 190 193 193 194 195 195 195 196 198 199 199 205 204 201 208 209 213 210 215 214 224 222 227 228 243 247 299 317 112 165 254 106 142 281
235 212 230 202 185 199 222 221 187 171 187 199 178 190 193 193 191 193 195 195 197 198 198 200 199 203 203 202 206 206 211 215 214 214 215 221 220 228 233 227 245 268 208 320 217 122 73 153 12
234 242 215 231 200 202 209 222 205 244 184 199 193 189 196 191 189 194 196 196 198 199 201 203 202 204 205 207 206 210 213 217 219 219 221 219 225 235 234 221 238 227 185 244 193 213 183 174 191
225 232 232 221 218 215 226 228 223 225 208 188 210 188 197 194 191 193 196 199 199 200 201 204 207 205 211 201 211 211 212 215 221 220 221 225 225 223 219 232 201 236 205 254 164 205 219 232 203
220 222 236 237 232 211 205 233 212 218 201 197 200 195 192 198 195 193 196 198 201 202 203 205 212 210 213 209 207 212 213 215 217 219 217 221 223 217 221 216 228 221 216 243 260 233 214 215 190
227 213 222 237 242 249 233 220 238 198 211 198 205 202 194 197 196 195 196 198 201 202 203 205 212 213 207 215 205 215 215 218 218 214 216 221 228 223 217 221 243 237 207 225 216 219 219 227 195
214 229 221 220 234 238 231 239 220 225 204 208 190 206 200 194 197 199 197 196 199 201 203 204 208 215 213 214 219 206 219 209 213 214 215 218 221 229 223 218 224 235 220 218 229 228 231 192 217
207 207 206 217 216 226 226 232 234 230 220 203 209 197 199 196 196 197 194 194 195 199 202 204 209 217 215 212 219 214 212 220 208 211 215 217 222 224 232 236 223 229 231 204 221 241 224 222 215
206 209 214 210 216 222 228 230 226 236 246 229 199 208 198 193 198 197 198 196 196 197 200 202 207 217 220 218 221 222 221 218 217 215 213 220 219 226 225 234 232 219 231 211 224 225 226 228 224
195 215 217 239 215 234 215 218 238 229 223 219 240 203 198 190 197 196 198 200 198 197 200 203 205 214 222 221 222 225 225 222 217 216 223 214 222 221 224 221 226 213 211 220 219 222 237 214 234
226 205 216 229 248 224 233 242 208 209 223 213 207 211 216 186 193 199 199 200 201 202 202 204 207 212 224 222 224 226 228 228 225 221 220 221 218 221 218 227 221 216 217 215 222 225 222 234 229
206 211 212 228 231 241 241 240 222 202 202 216 217 211 213 207 190 198 201 201 203 204 205 207 208 211 215 225 224 226 229 231 231 228 231 229 229 220 220 220 230 222 218 219 224 221 221 243 237
208 216 200 221 215 237 262 117 32 159 208 190 215 210 209 203 195 197 198 201 203 206 208 209 211 213 216 223 224 227 231 233 234 234 230 234 234 236 236 229 229 233 224 222 227 230 220 230 239
Height
1507 1508 1511 1512 1514 1493 1485 1472 1463 1475 1481 1484 1492 1492 1501 1504 1504 1521 1523 1530 1535 1539 1543 1545 1548 1550 1551 1553 1556 1558 1560 1562 1563 1564 1564 1564 1565 1566 1566 1566 1566 1567 1567 1567 1568 1568 1568 1568 1568
1509 1512 1513 1509 1508 1502 1477 1471 1478 1481 1481 1488 1490 1493 1498 1509 1511 1516 1524 1531 1537 1543 1547 1548 1549 1552 1554 1556 1558 1560 1562 1564 1565 1566 1566 1567 1567 1568 1568 1569 1569 1568 1569 1569 1570 1570 1570 1570 1570
1511 1509 1511 1498 1493 1495 1479 1473 1474 1479 1483 1489 1492 1499 1501 1512 1515 1519 1526 1532 1540 1546 1549 1549 1551 1554 1556 1558 1561 1563 1564 1565 1567 1568 1569 1569 1570 1570 1570 1571 1571 1571 1571 1571 1572 1572 1572 1572 1572
1509 1509 1507 1504 1502 1461 1466 1467 1473 1480 1485 1488 1493 1501 1510 1515 1517 1523 1528 1535 1541 1545 1550 1550 1553 1556 1558 1560 1563 1565 1566 1567 1568 1569 1570 1571 1572 1573 1573 1573 1573 1573 1573 1573 1574 1574 1574 1574 1574
1509 1500 1486 1478 1465 1460 1460 1465 1475 1481 1482 1487 1494 1503 1514 1520 1523 1528 1534 1539 1543 1547 1550 1551 1555 1557 1560 1562 1565 1566 1567 1569 1570 1571 1572 1573 1573 1574 1575 1574 1575 1575 1575 1575 1575 1575 1576 1576 1576
1505 1491 1502 1500 1461 1457 1463 1469 1470 1473 1482 1490 1500 1508 1517 1523 1526 1531 1536 1541 1545 1548 1553 1554 1556 1559 1562 1564 1566 1568 1569 1570 1572 1573 1574 1574 1575 1576 1576 1576 1577 1577 1577 1577 1577 1577 1577 1577 1577
1498 1480 1479 1458 1460 1464 1466 1469 1468 1477 1485 1488 1499 1507 1517 1523 1529 1533 1538 1543 1547 1551 1554 1557 1559 1561 1563 1566 1567 1569 1571 1572 1574 1575 1575 1576 1577 1577 1578 1578 1579 1579 1579 1579 1580 1579 1579 1579 1578
1490 1480 1474 1453 1462 1468 1470 1470 1478 1480 1486 1494 1497 1504 1514 1522 1529 1534 1540 1544 1547 1551 1555 1558 1561 1563 1566 1566 1569 1571 1572 1574 1576 1577 1577 1578 1579 1580 1580 1580 1581 1581 1581 1581 1581 1581 1581 1581 1580
1489 1482 1493 1469 1475 1462 1468 1474 1480 1485 1492 1496 1498 1502 1514 1523 1530 1535 1540 1545 1547 1552 1556 1559 1562 1565 1568 1570 1570 1572 1574 1576 1578 1578 1579 1579 1579 1582 1583 1583 1583 1583 1583 1583 1583 1583 1583 1582 1582
1484 1483 1494 1453 1464 1463 1464 1471 1481 1485 1492 1497 1498 1506 1517 1525 1530 1534 1539 1543 1547 1551 1555 1559 1563 1566 1569 1572 1571 1574 1576 1578 1579 1580 1580 1572 1582 1584 1584 1584 1584 1584 1584 1584 1584 1584 1584 1583 1582
1475 1480 1482 1459 1459 1460 1461 1470 1480 1484 1488 1495 1501 1509 1516 1523 1530 1535 1540 1544 1547 1551 1555 1559 1563 1566 1570 1573 1573 1576 1578 1581 1582 1582 1582 1581 1585 1583 1584 1584 1584 1585 1586 1583 1585 1585 1583 1584 1583
1474 1467 1467 1462 1465 1461 1460 1466 1475 1480 1483 1493 1501 1509 1514 1520 1526 1533 1538 1543 1547 1551 1555 1558 1563 1565 1569 1572 1574 1577 1579 1581 1582 1583 1582 1584 1583 1586 1587 1583 1585 1586 1587 1588 1588 1587 1587 1583 1586
1470 1467 1465 1464 1467 1465 1463 1466 1469 1481 1486 1493 1501 1508 1514 1520 1525 1529 1534 1540 1545 1550 1554 1558 1562 1564 1568 1571 1574 1576 1579 1580 1582 1582 1582 1585 1586 1585 1585 1585 1584 1586 1587 1588 1587 1586 1587 1586 1587
1463 1467 1463 1464 1464 1466 1465 1464 1472 1477 1487 1492 1500 1507 1512 1518 1522 1527 1532 1537 1543 1548 1553 1557 1560 1563 1566 1569 1572 1575 1578 1579 1581 1582 1583 1582 1585 1586 1586 1586 1584 1585 1586 1587 1588 1587 1586 1586 1587
1461 1464 1464 1461 1462 1461 1464 1463 1467 1470 1484 1489 1497 1504 1509 1515 1520 1524 1529 1535 1541 1546 1551 1555 1558 1561 1563 1567 1570 1573 1576 1578 1580 1582 1582 1581 1582 1584 1584 1583 1585 1585 1587 1586 1587 1587 1587 1586 1587
1464 1462 1464 1457 1458 1458 1462 1464 1458 1467 1480 1486 1493 1499 1505 1511 1517 1522 1527 1533 1539 1544 1548 1552 1556 1559 1561 1564 1567 1572 1575 1577 1578 1580 1581 1580 1581 1582 1584 1585 1584 1586 1586 1587 1586 1587 1586 1586 1587
1457 1463 1460 1451 1448 1450 1456 1464 1475 1463 1474 1481 1489 1495 1501 1507 1513 1519 1524 1529 1535 1540 1545 1549 1553 1557 1559 1562 1566 1569 1573 1574 1577 1578 1580 1579 1580 1581 1583 1584 1584 1585 1586 1587 1585 1585 1586 1584 1585
1457 1457 1445 1449 1439 1445 1450 1449 1458 1457 1466 1472 1483 1490 1496 1502 1507 1514 1520 1526 1532 1537 1541 1546 1550 1554 1557 1560 1563 1567 1570 1573 1575 1577 1578 1578 1578 1580 1581 1584 1584 1585 1583 1585 1585 1585 1585 1585 1585
1438 1439 1442 1431 1431 1444 1445 1449 1454 1450 1459 1464 1471 1483 1490 1496 1503 1510 1517 1522 1528 1533 1537 1541 1545 1549 1553 1556 1559 1563 1566 1569 1572 1574 1575 1576 1576 1579 1579 1582 1582 1583 1584 1583 1584 1584 1584 1585 1585
1442 1437 1435 1430 1427 1435 1440 1444 1443 1447 1448 1459 1463 1475 1483 1491 1498 1505 1511 1517 1522 1527 1532 1536 1540 1544 1548 1552 1556 1560 1563 1567 1569 1571 1572 1573 1575 1577 1577 1579 1580 1582 1581 1583 1584 1584 1585 1585 1585
1440 1438 1433 1434 1429 1428 1439 1444 1441 1439 1441 1450 1458 1465 1476 1482 1489 1497 1504 1510 1516 1521 1526 1530 1534 1538 1542 1548 1552 1556 1560 1563 1566 1568 1570 1571 1573 1575 1575 1577 1579 1579 1582 1581 1583 1583 1584 1584 1585
1438 1431 1432 1432 1434 1447 1438 1459 1438 1434 1437 1444 1450 1455 1465 1473 1481 1488 1496 1503 1509 1514 1520 1525 1528 1532 1536 1541 1548 1551 1554 1558 1561 1564 1566 1569 1569 1573 1575 1576 1576 1578 1581 1582 1582 1583 1583 1583 1584
1429 1425 1434 1435 1437 1436 1435 1445 1426 1422 1433 1433 1440 1445 1453 1464 1472 1479 1486 1494 1501 1509 1514 1520 1523 1526 1531 1534 1540 1546 1550 1553 1557 1561 1563 1565 1566 1568 1572 1574 1573 1574 1576 1580 1580 1580 1581 1583 1584
1424 1429 1429 1434 1438 1450 1433 1431 1424 1415 1417 1419 1427 1437 1444 1453 1463 1471 1479 1488 1495 1503 1509 1514 1517 1520 1525 1529 1533 1539 1544 1548 1553 1556 1559 1561 1563 1564 1566 1570 1571 1572 1574 1577 1577 1579 1579 1580 1583
1421 1429 1446 1452 1443 1443 1422 1430 1420 1404 1405 1411 1420 1427 1436 1445 1454 1463 1472 1480 1487 1495 1502 1508 1511 1514 1518 1523 1527 1532 1537 1542 1546 1550 1554 1556 1559 1560 1561 1563 1566 1568 1570 1573 1576 1576 1577 1577 1579
1413 1415 1425 1448 1438 1431 1415 1421 1409 1402 1402 1404 1411 1419 1428 1437 1446 1455 1464 1471 1478 1485 1492 1498 1503 1506 1511 1516 1520 1525 1531 1536 1540 1544 1548 1551 1554 1556 1558 1557 1561 1564 1566 1569 1572 1574 1574 1575 1575
1404 1408 1399 1406 1395 1406 1398 1398 1394 1391 1398 1404 1410 1412 1417 1427 1438 1446 1455 1463 1470 1476 1482 1488 1495 1498 1503 1508 1514 1519 1523 1528 1532 1536 1540 1545 1548 1551 1554 1556 1556 1559 1562 1565 1567 1570 1571 1572 1571
1384 1394 1417 1402 1421 1421 1398 1393 1396 1392 1393 1393 1402 1408 1412 1418 1430 1438 1446 1455 1462 1468 1472 1478 1484 1489 1491 1499 1505 1510 1514 1519 1525 1530 1533 1537 1542 1545 1550 1550 1552 1554 1557 1559 1562 1565 1567 1566 1568
1386 1387 1394 1393 1394 1408 1412 1395 1364 1372 1383 1392 1393 1402 1407 1411 1420 1430 1438 1445 1453 1461 1468 1472 1477 1481 1487 1490 1495 1500 1505 1510 1517 1521 1525 1530 1534 1538 1542 1545 1546 1549 1551 1554 1556 1559 1563 1561 1563
1371 1378 1383 1396 1404 1391 1383 1385 1361 1361 1373 1382 1391 1395 1401 1406 1412 1422 1431 1439 1447 1454 1460 1464 1469 1474 1476 1481 1487 1491 1497 1502 1507 1511 1517 1522 1525 1529 1532 1537 1539 1542 1545 1547 1549 1551 1555 1556 1556